Sigonella, Italy

8:50 AM CEST on September 23, 2017 (GMT +0200)
Sigonella Mil

Weather History for LICZ - November, 2013

Change the Weather History Date:

Monday, November 4, 2013

  Actual Average Record
Temperature  
Mean Temperature 67 °F -  
Max Temperature 81 °F 68 °F 82 °F (2016)
Min Temperature 53 °F 48 °F 33 °F (2006)
Cooling Degree Days 2    
Growing Degree Days 17 (Base 50)    
Moisture  
Dew Point 59 °F    
Average Humidity 82    
Maximum Humidity 100    
Minimum Humidity 39    
Precipitation  
Precipitation 0.00 in 0.07 in - ()
Sea Level Pressure  
Sea Level Pressure 29.95 in    
Wind  
Wind Speed 6 mph ()    
Max Wind Speed 17 mph    
Max Gust Speed -    
Visibility 6.9 miles    
Events      
Averages and records for this station are not official NWS values.
T = Trace of Precipitation, MM = Missing Value Source: Averaged Metar Reports

Daily Weather History Graph

Daily Weather History Graph

Search for Another Location

Airport or City:

Trip Planner

Search our weather history database for the weather conditions in past years. The results will help you decide how hot, cold, wet, or windy it might be!

Date:

Astronomy

Nov. 04, 2013 Rise Set
Actual Time 6:28 AM CET 4:59 PM CET
Civil Twilight 6:00 AM CET 5:26 PM CET
Nautical Twilight 5:29 AM CET 5:57 PM CET
Astronomical Twilight 4:59 AM CET 6:27 PM CET
Moon 7:18 AM CET (11/4) 5:50 PM CET (11/4)
Length of Visible Light 11h 25m
Length of Day
10h 31m
New Moon, 1% of the Moon is Illuminated
Nov 4
New Moon
Nov 10
First Quarter
Nov 17
Full
Nov 25
Last Quarter
Dec 3
New

Hourly Weather History & Observations

Time (CET) Temp. Dew Point Humidity Pressure Visibility Wind Dir Wind Speed Gust Speed Precip Events Conditions
12:55 AM 60.8 °F 60.8 °F 100% 30.06 in 6.2 mi NW 4.6 mph - N/A   Partly Cloudy
1:00 AM 60 °F 60 °F 100% 30.07 in 6 mi NW 4.6 mph - -   Scattered Clouds
1:55 AM 59.0 °F 59.0 °F 100% 30.04 in 6.2 mi NW 5.8 mph - N/A   Partly Cloudy
2:55 AM 57.2 °F 57.2 °F 100% 30.04 in 6.2 mi NW 3.5 mph - N/A   Partly Cloudy
3:55 AM 55.4 °F 55.4 °F 100% 30.04 in 6.2 mi NW 3.5 mph - N/A   Partly Cloudy
4:00 AM 56 °F 56 °F 99% 30.05 in 6 mi NW 3.5 mph - -   Scattered Clouds
4:55 AM 57.2 °F 57.2 °F 100% 30.04 in 6.2 mi NW 6.9 mph - N/A   Partly Cloudy
5:55 AM 55.4 °F 55.4 °F 100% 30.04 in 6.2 mi West 4.6 mph - N/A   Partly Cloudy
6:55 AM 53.6 °F 53.6 °F 100% 30.04 in 6.2 mi WNW 6.9 mph - N/A   Partly Cloudy
7:00 AM 54 °F 54 °F 98% 30.05 in 6 mi WNW 6.9 mph - -   Scattered Clouds
7:55 AM 57.2 °F 57.2 °F 100% 30.04 in 6.2 mi West 3.5 mph - N/A   Partly Cloudy
8:55 AM 64.4 °F 59.0 °F 83% 30.04 in - NW 6.9 mph - N/A   Clear
9:55 AM 68.0 °F 59.0 °F 73% 30.01 in 6.2 mi WNW 8.1 mph - N/A   Partly Cloudy
10:00 AM 67 °F 59 °F 67% 30.03 in 10 mi WNW 8.1 mph - -   Scattered Clouds
10:55 AM 71.6 °F 62.6 °F 73% 30.01 in 6.2 mi NW 8.1 mph - N/A   Partly Cloudy
11:55 AM 73.4 °F 60.8 °F 65% 29.98 in 6.2 mi NW 8.1 mph - N/A   Partly Cloudy
12:55 PM 77.0 °F 57.2 °F 50% 29.92 in 6.2 mi West 12.7 mph - N/A   Partly Cloudy
1:00 PM 77 °F 57 °F 39% 29.94 in 11 mi West 12.7 mph - -   Scattered Clouds
1:55 PM 78.8 °F 57.2 °F 47% 29.89 in 6.2 mi WSW 15.0 mph - N/A   Partly Cloudy
2:55 PM 78.8 °F 57.2 °F 47% 29.89 in 6.2 mi WSW 16.1 mph - N/A   Partly Cloudy
3:55 PM 75.2 °F 55.4 °F 50% 29.86 in 6.2 mi WSW 17.3 mph - N/A   Partly Cloudy
4:00 PM 75 °F 55 °F 39% 29.88 in 11 mi WSW 17.3 mph - -   Scattered Clouds
4:55 PM 71.6 °F 62.6 °F 73% 29.86 in 6.2 mi WSW 9.2 mph - N/A   Partly Cloudy
5:55 PM 68.0 °F 60.8 °F 78% 29.86 in 6.2 mi West 5.8 mph - N/A   Partly Cloudy
6:55 PM 68.0 °F 62.6 °F 83% 29.86 in 6.2 mi West 6.9 mph - N/A   Partly Cloudy
7:00 PM 68 °F 63 °F 80% 29.88 in 11 mi West 6.9 mph - -   Scattered Clouds
7:55 PM 64.4 °F 62.6 °F 94% 29.86 in 6.2 mi WSW 3.5 mph - N/A   Partly Cloudy
8:55 PM 64.4 °F 62.6 °F 94% 29.83 in 6.2 mi WNW 4.6 mph - N/A   Partly Cloudy
9:55 PM 62.6 °F 60.8 °F 94% 29.83 in 6.2 mi NNW 2.3 mph - N/A   Partly Cloudy
10:00 PM 63 °F 61 °F 91% 29.83 in 9 mi NNW 2.3 mph - -   Scattered Clouds
10:55 PM 60.8 °F 59.0 °F 94% 29.80 in 6.2 mi West 6.9 mph - N/A   Partly Cloudy
11:55 PM 59.0 °F 59.0 °F 100% 29.80 in 6.2 mi West 4.6 mph - N/A   Partly Cloudy